ニート彗星

240P/NEAT (2003)

English version
Home page
Updated on April 23, 2012

---------------------------------------------------------------------

・ プロフィール

符号 240P/2002 X2
発見日 2002年12月7日
発見光度 18.4等
発見者 Near-Earth-Asteroid Tracking Team (Jet Propulsion Laboratory)

・ 軌道要素

Epoch 2003 Mar. 22.0 TT = JDT 2452720.5
T 2003 Mar. 29.59957 TT                                 MPC
q   2.5287153            (2000.0)            P               Q
n   0.12162712     Peri.  356.03489     +0.26593844     -0.86812312
a   4.0344322      Node    78.15457     +0.89580455     +0.06195220
e   0.3732166      Incl.   25.35413     +0.35610525     +0.49246744
P   8.10
From 1656 observations 2002 Oct. 5-2012 Apr. 16, mean residual 0".6.
     Nongravitational parameters A1 = -1.18, A2 = +1.0823.

・ 星図

・ 光度変化

        m1 = 9.2 + 5 logΔ + 17.5 log r

---------------------------------------------------------------------

軌道要素はM.P.E.C. 2012-H42に掲載されたものです。
星図は StellaNavigator Ver.2.0 for Windows (アストロアーツ編著 / アスキー出版局刊) で作成したものです。
光度グラフはComet for Windowsで作成したものです。

---------------------------------------------------------------------

Copyright(C) Seiichi Yoshida (comet@aerith.net). All rights reserved.